TimeMDT,TemperatureF,Dew PointF,Humidity,Sea Level PressureIn,VisibilityMPH,Wind Direction,Wind SpeedMPH,Gust SpeedMPH,PrecipitationIn,Events,Conditions,WindDirDegrees,DateUTC
12:00 AM,22,22,97,29.97,,NNW,24.2,,,,,340,2013-09-17 06:00:00
12:00 AM,22.3,21.7,98,29.97,-9999.0,North,24.2,-,0.01,,Unknown,350,2013-09-17 06:00:00
1:00 AM,22.5,21.9,98,29.96,-9999.0,North,24.2,-,N/A,,Unknown,350,2013-09-17 07:00:00
2:00 AM,23.2,22.6,98,29.97,-9999.0,North,23.0,-,0.01,,Unknown,350,2013-09-17 08:00:00
3:00 AM,23.4,22.8,98,29.99,-9999.0,NNW,21.9,-,N/A,,Unknown,340,2013-09-17 09:00:00
4:00 AM,23.0,22.3,97,30.03,-9999.0,North,13.8,-,N/A,,Unknown,350,2013-09-17 10:00:00
5:00 AM,20.8,19.9,96,30.04,-9999.0,North,12.7,-,N/A,,Unknown,350,2013-09-17 11:00:00
6:00 AM,21,20,93,30.04,,NW,11.5,,,,,320,2013-09-17 12:00:00
6:00 AM,20.7,19.8,96,30.04,-9999.0,NW,10.4,-,N/A,,Unknown,310,2013-09-17 12:00:00
8:00 AM,19.9,19.0,96,30.03,-9999.0,NW,15.0,-,N/A,,Unknown,320,2013-09-17 14:00:00
9:00 AM,19.9,19.0,96,30.03,-9999.0,NNW,15.0,-,N/A,,Unknown,330,2013-09-17 15:00:00
10:00 AM,19.2,18.3,96,30.04,-9999.0,NNW,16.1,-,N/A,,Unknown,340,2013-09-17 16:00:00
11:00 AM,19.6,18.7,96,30.04,-9999.0,NW,17.3,-,N/A,,Unknown,320,2013-09-17 17:00:00
12:00 PM,20,18,91,30.05,,NW,16.1,,,,,310,2013-09-17 18:00:00
12:00 PM,19.6,18.7,96,30.05,-9999.0,NW,15.0,-,N/A,,Unknown,310,2013-09-17 18:00:00
1:00 PM,20.3,19.4,96,30.06,-9999.0,NNW,15.0,-,0.01,,Unknown,340,2013-09-17 19:00:00
2:00 PM,20.5,19.6,96,30.06,-9999.0,NNW,15.0,-,N/A,,Unknown,340,2013-09-17 20:00:00
3:00 PM,19.2,18.1,96,30.07,-9999.0,NNW,19.6,-,N/A,,Unknown,340,2013-09-17 21:00:00
4:00 PM,18.3,17.2,96,30.08,-9999.0,NNW,17.3,-,N/A,,Unknown,330,2013-09-17 22:00:00
5:00 PM,19.0,18.1,96,30.08,-9999.0,NNW,16.1,-,N/A,,Unknown,330,2013-09-17 23:00:00
6:00 PM,19,18,94,30.09,,NNW,17.3,,,,,330,2013-09-18 00:00:00
6:00 PM,19.0,18.1,96,30.09,-9999.0,NNW,15.0,-,N/A,,Unknown,340,2013-09-18 00:00:00
7:00 PM,18.5,17.6,96,30.09,-9999.0,NNW,19.6,-,N/A,,Unknown,330,2013-09-18 01:00:00
8:00 PM,18.0,16.9,96,30.09,-9999.0,NNW,19.6,-,N/A,,Unknown,330,2013-09-18 02:00:00
9:00 PM,18.9,18.0,96,30.09,-9999.0,North,25.3,-,N/A,,Unknown,360,2013-09-18 03:00:00
10:00 PM,17.4,15.4,92,30.11,-9999.0,West,11.5,-,N/A,,Unknown,280,2013-09-18 04:00:00
11:00 PM,14.0,12.6,94,30.11,-9999.0,WNW,15.0,-,0.01,,Unknown,300,2013-09-18 05:00:00